Regional Weather Roundup
Issued by NWS

Home | Current Version | Previous Version | Text Only | Print | Product List | Glossary On
Versions: 1 2 3 4 5 6 7 8 9 10 11 12 13 14 15 16 17 18 19 20 21 22 23 24 25 26 27 28
000
ASUS44 KJAN 240810
RWRMS

MISSISSIPPI HOURLY WEATHER ROUNDUP
NATIONAL WEATHER SERVICE JACKSON MS
300 AM CDT FRI MAR 24 2017

NOTE: "FAIR: INDICATES FEW OR NO CLOUDS BELOW 12,000 FEET WITH NO
SIGNIFICANT WEATHER AND/OR OBSTRUCTIONS TO VISIBILITY.

MSZ001>002-007>008-010>013-018>021-025>028-034>036-240900-
NORTHWEST MISSISSIPPI

CITY           SKY/WX    TMP DP  RH WIND       PRES   REMARKS
GREENWOOD      CLEAR     69  60  73 SE15      30.13F
GREENVILLE     CLEAR     68  55  63 S14       30.09S
OXFORD         FAIR      64  55  72 SE8       30.16F
TUNICA         MOSUNNY   64  54  68 SE13      30.10F
$$

MSZ003>006-009-014>017-022>024-029>033-037>039-240900-
NORTHEAST MISSISSIPPI

CITY           SKY/WX    TMP DP  RH WIND       PRES   REMARKS
COLUMBUS AFB   MOCLDY    65  56  72 SE14      30.21F
GOLDN TRIANGLE CLOUDY    66  54  63 SE14      30.18S
STARKVILLE     CLOUDY    68  59  73 S13G20    30.21F
TUPELO         CLOUDY    66  55  67 SE14      30.19F
$$

MSZ040-058-240900-
CENTRAL MISSISSIPPI

CITY           SKY/WX    TMP DP  RH WIND       PRES   REMARKS
JACKSON INTL   CLOUDY    68  60  75 SE12      30.16F
JACKSON HAWKNS CLOUDY    67  59  75 SE13      30.16F
MERIDIAN KEY   CLOUDY    68  63  84 S10       30.22F
MERIDIAN NAS   CLOUDY    69  59  70 SE8       30.23F
VICKSBURG VKS    N/A     68  61  77 VRB7G17   30.11F
$$

MSZ059>079-240900-
SOUTH MISSISSIPPI

CITY           SKY/WX    TMP DP  RH WIND       PRES   REMARKS
BROOKHAVEN     FAIR      66  63  88 SE9       30.18F
COLUMBIA       PTSUNNY   66 N/A N/A SE6       30.21F
HATTIESBURG    CLOUDY    68  63  84 SE10      30.22F
MCCOMB         CLOUDY    67  63  87 SE12      30.16F
NATCHEZ        MOCLDY    66  59  77 SE14      30.12F
PINE BELT      CLOUDY    66  61  82 S12       30.23F
$$

MSZ080>082-240900-
COASTAL MISSISSIPPI

CITY           SKY/WX    TMP DP  RH WIND       PRES   REMARKS
BILOXI         CLOUDY    70  66  88 SE14      30.21F
PASCAGOULA     CLOUDY    70  64  81 SE12      30.22F
GULFPORT       CLOUDY    70  67  90 SE15      30.21F
$$

LAZ007>009-015>016-023>026-240900-
NORTHEAST LOUISIANA

CITY           SKY/WX    TMP DP  RH WIND       PRES   REMARKS
BASTROP        PTSUNNY   68  64  87 SE9G20    30.09F
TALLULAH/VBURG MOCLDY    66  60  81 SE13      30.13F
VIDALIA        CLOUDY    68  63  82 SE13      30.11S
$$




USA.gov is the U.S. government's official web portal to all federal, state and local government web resources and services.